World > North America > United States > Mississippi > Darling  

Darling, MS Hourly Weather Updates

Feedback E-mail the Weather

Quick Clicks

Darling, MS Weather Maps

°F °C°F °C
Darling Weather Map
UTC Time: 4/17/2024, 00:37
Your Time:

Darling, MS Regional Weather

Expires:202404170100;;868532
ASUS44 KJAN 170010
RWRMS 

MISSISSIPPI HOURLY WEATHER ROUNDUP
NATIONAL WEATHER SERVICE JACKSON MS
700 PM CDT TUE APR 16 2024

NOTE: "FAIR: INDICATES FEW OR NO CLOUDS BELOW 12,000 FEET WITH NO
SIGNIFICANT WEATHER AND/OR OBSTRUCTIONS TO VISIBILITY.


MSZ001>002-007>008-010>013-018>021-025>028-034>036-170100-
NORTHWEST MISSISSIPPI
  
CITY           SKY/WX    TMP DP  RH WIND       PRES   REMARKS
CLARKSDALE       N/A     79  79 100 S10       29.88S                  
GREENWOOD      CLOUDY    79  65  62 S8        29.91S                  
6HR MIN TEMP:  79; 6HR MAX TEMP:  84;                                

GREENVILLE     MOCLDY    82  64  54 S16G28    29.86R                  
6HR MIN TEMP:  81; 6HR MAX TEMP:  85;                                

OLIVE BRANCH   RAIN      75  61  60 S15G22    29.88R                  
OXFORD         CLOUDY    77  59  53 S10       29.93R                  
TUNICA         CLOUDY    75  67  75 S15       29.85F                  
WINONA         CLOUDY    76  64  65 S6        29.93S                  
$$


SKY/WX - Weather  TMP - Temperature  DP - Dew Point  RH - Humidity
WIND - Wind Direction/Speed PRES - Barometric Pressure VSB - Visibility
WCI - Wind Chill Index E13G22 Wind - East Wind 13 mph/Gusts of 22 mph

Trending Headlines

Trending Entertainment Headlines

Darling Radar Loop

Use the map search tool if you want to place a location marker on the radar map...

Darling Quick Facts

National Two Day Weather Forecast


E-mail the Darling Weather Forecast

Voice your opinion or tell us about page issues...